Location: Newark
(49.1939°N, 0.8136°E)
Time: 10:40:33
(UTC+00:00)

Envisat - Pass Details

Date: 26 November 2019
Orbit: 764 x 766 km, 98.1° (Epoch: 11 December)

Event Time Altitude Azimuth Distance (km) Brightness Sun altitude
Rises 17:56:18 0° 170° (S) 3,220 6.3 -17.7°
Reaches altitude 10° 17:58:36 10° 172° (S) 2,298 5.5 -18.0°
Maximum altitude 18:03:39 72° 257° (WSW) 808 3.2 -18.9°
Drops below altitude 10° 18:08:46 10° 342° (NNW) 2,314 5.6 -19.7°
Sets 18:11:05 0° 345° (NNW) 3,245 6.3 -20.1°
